« Back
NWS Peachtree City, Ga » Text Product » GA Regional Weather Roundup


Printer-friendly Version
Current Version              Previous Versions:   1  2  3  4  5  6  7  8  9  

Regional Weather Roundup

693
ASUS42 KFFC 101103
RWRGA
WEATHER ROUNDUP FOR GEORGIA
NATIONAL WEATHER SERVICE PEACHTREE CITY GA
600 AM EST WED FEB 10 2016

NOTE: "FAIR" INDICATES FEW OR NO CLOUDS BELOW 12,000 FEET WITH NO
SIGNIFICANT WEATHER AND/OR OBSTRUCTIONS TO VISIBILITY.

* = USE WITH CAUTION. THE STATIONS MARKED WITH AN ASTERISK MAY NOT
REPORT WEATHER SUCH AS PRECIPITATION, FOG, OR THUNDER AND ARE NOT
QUALITY CONTROLLED BY NWS.

THE REMARK "TC" DENOTES TEMPERATURE READING IN DEGREES CELSIUS.

GAZ001>058-101200-
NORTH GEORGIA

CITY           SKY/WX    TMP DP  RH WIND       PRES   REMARKS
ATLANTA        PTCLDY    24  10  55 NW14G22   30.07R WCI  12
ATHENS         CLOUDY    26  16  65 W16G24    30.02R WCI  14
CHAMBLEE       MOCLDY    23   9  55 NW14G25   30.06R WCI  11
PEACHTREE CITY PTCLDY    24  12  60 NW10G18   30.10R WCI  14
ROME             N/A     23  11  60 W6        30.11R WCI  16
WEST ATLANTA   MOCLDY    24   8  50 NW10G20   30.08R WCI  14
GAINESVILLE    MOCLDY    20  11  68 W14G23    30.00R WCI   7
CARTERSVILLE   PTCLDY    22  11  62 VRB3      30.11R


CITY           SKY/WX    TMP DP  RH WIND       PRES   REMARKS
MARIETTA       PTCLDY    22   9  57 NW10G22   30.06R WCI  11
BLAIRSVILLE*   LGT SNOW  18  -3  39 NW6       29.96R WCI  10
$$

GAZ059>098-102>109-101200-
CENTRAL GEORGIA

CITY           SKY/WX    TMP DP  RH WIND       PRES   REMARKS
AUGUSTA-BUSH   CLOUDY    27  17  66 NW5       30.04R WCI  22
AUGUSTA-DANIEL MOCLDY    28  13  53 W7        30.02R WCI  21
COLUMBUS       PTCLDY    26  15  63 NW10      30.15R WCI  16
MACON          CLOUDY    28  19  69 W10       30.10R WCI  19
ROBINS AFB     CLOUDY    29  16  58 W12       30.11R WCI  19


CITY           SKY/WX    TMP DP  RH WIND       PRES   REMARKS
LAGRANGE*      PTCLDY    29  18  63 NW7       30.12S WCI  22
SYLVANIA*      CLEAR     31  24  75 W9        30.06R WCI  23
MILLEDGEVILLE* CLOUDY    30  18  59 NW10G20   30.06R WCI  21
$$

GAZ099>101-110>166-101200-
SOUTH GEORGIA

CITY           SKY/WX    TMP DP  RH WIND       PRES   REMARKS
SAVANNAH       CLEAR     29  22  75 W8        30.07R WCI  21
VALDOSTA       CLEAR     32  22  66 VRB3      30.14R
ALMA           CLEAR     31  22  69 NW7       30.11R WCI  24
ST SIMONS      CLEAR     33  26  75 W6        30.10R WCI  28
FT STEWART     CLEAR     30  22  70 W6        30.06R WCI  24
ALBANY         CLEAR     29  20  69 NW7       30.18R WCI  22
HUNTER AFB     CLEAR     28  22  78 W9        30.04R WCI  20
MOODY AFB      CLEAR     31  20  63 W7        30.12R WCI  24
BRUNSWICK      CLEAR     32  28  86 W3        30.11R


CITY           SKY/WX    TMP DP  RH WIND       PRES   REMARKS
BAINBRIDGE*    CLEAR     32  21  64 NW8       30.19R WCI  25
MOULTRIE*      CLEAR     32  23  69 CALM      30.14R
VIDALIA*       CLEAR     30  23  74 W8        30.08R WCI  23
WAYCROSS*      CLEAR     32  29  88 W5        30.11R WCI  27
DOUGLAS*       CLEAR     32  23  69 NW5       30.13R WCI  27
$$




USA.gov is the U.S. government's official web portal to all federal, state and local government web resources and services.